Temperature
25 24 23 22 21 22 24 28 29 30 29 29 29 28 27 26 25 23 23 23 23 23 22 22 22 21 21 21 21 21 21 21 21 21 21 21 21 21 21 20 20 20 20 20 20 20 20 20 20
25 24 23 22 23 23 25 27 28 29 29 29 29 28 27 24 23 23 22 23 24 24 23 22 22 21 21 21 21 21 21 21 21 21 21 21 21 21 21 21 21 21 21 21 20 20 20 20 20
26 25 24 22 23 23 25 27 28 28 30 30 29 28 27 25 23 23 24 24 24 24 23 22 22 21 21 21 21 21 21 21 21 21 21 21 21 21 21 21 21 21 20 21 20 20 20 20 20
26 25 24 22 24 25 26 27 28 28 29 29 28 27 27 25 25 25 24 24 24 24 23 22 22 22 21 21 21 21 21 21 21 21 21 21 21 21 20 20 20 20 20 20 20 20 20 20 20
26 25 23 23 25 27 28 28 28 27 28 28 27 26 26 26 26 25 24 24 25 24 23 22 22 22 21 21 21 21 21 21 21 21 21 21 20 20 20 20 20 20 20 20 20 20 20 20 20
27 24 23 24 26 28 28 29 28 27 28 27 27 26 25 25 26 25 25 25 25 24 23 23 22 22 22 21 21 21 21 21 21 21 21 20 20 20 20 20 20 20 20 20 20 20 20 20 20
27 23 24 25 26 27 29 29 29 28 28 28 27 25 24 24 26 25 25 25 25 24 24 23 22 22 22 22 21 21 21 21 21 21 21 20 20 20 20 20 20 20 19 20 20 20 19 19 19
29 23 25 25 27 28 30 30 30 29 28 28 28 25 25 24 25 25 25 25 25 24 24 24 23 23 22 22 22 21 21 21 21 21 21 20 20 20 20 20 19 19 19 19 19 19 19 19 19
28 23 23 25 27 28 29 30 30 30 29 28 28 28 27 25 25 24 24 24 24 24 24 24 23 23 22 22 22 21 21 21 21 21 21 20 20 20 20 19 19 19 19 19 19 19 19 19 19
27 23 25 27 28 29 29 30 30 29 27 27 27 28 28 26 25 24 24 24 24 24 24 24 24 23 23 22 22 21 21 21 21 21 20 20 20 20 20 19 19 19 19 19 18 18 18 19 19
27 25 27 28 30 30 30 30 31 28 26 27 28 28 27 26 26 25 25 25 25 24 24 24 24 23 23 22 22 21 21 21 20 20 20 20 20 19 19 19 19 18 18 18 18 18 18 18 18
27 27 28 30 31 31 30 31 30 29 29 30 30 29 28 26 26 26 25 25 25 24 24 24 23 23 23 22 22 21 21 21 20 20 20 19 19 19 19 19 19 18 18 18 18 18 18 18 18
27 27 29 30 30 30 31 30 30 30 30 29 29 29 28 27 27 26 26 25 25 24 24 23 23 22 22 22 21 21 20 20 20 20 19 19 19 19 19 18 18 18 18 18 18 18 18 18 18
26 27 27 29 30 31 29 29 29 29 30 28 27 27 27 27 26 26 25 25 24 24 23 23 22 22 22 21 21 20 20 20 20 19 19 19 19 19 18 18 18 18 18 18 17 17 17 17 17
27 25 25 27 28 29 29 27 28 29 29 27 26 26 26 26 26 25 25 24 24 23 22 22 22 21 21 21 20 20 20 20 19 19 19 19 19 19 19 19 18 18 18 18 17 17 17 17 17
25 25 24 25 26 28 28 26 27 29 28 26 25 24 24 24 24 24 24 23 23 22 22 21 20 20 20 20 20 20 19 19 19 19 19 19 19 19 19 19 18 18 18 18 17 17 17 17 17
23 23 24 25 27 27 26 25 26 27 26 24 23 22 22 22 22 22 22 22 22 21 20 20 20 19 19 19 19 19 19 19 19 19 19 19 19 19 19 19 18 18 18 18 17 17 17 17 17
23 24 25 25 27 27 26 25 25 25 24 22 21 20 19 20 20 21 21 21 21 20 20 19 19 18 19 19 19 18 19 19 19 19 19 19 19 19 19 19 19 18 18 18 17 17 17 17 17
25 26 25 26 27 26 24 24 23 23 22 20 19 18 18 18 19 19 20 20 20 19 19 19 18 18 18 19 18 18 19 19 19 19 19 19 19 19 19 19 19 19 19 18 18 17 17 17 17
26 26 25 26 27 26 23 22 21 20 19 18 18 17 17 17 18 19 19 19 19 19 19 18 18 18 18 18 18 18 18 18 19 19 19 19 19 19 19 19 19 19 19 18 18 18 17 17 16
26 26 26 26 25 24 24 21 20 20 18 18 17 16 16 16 16 17 17 18 17 18 17 17 17 17 18 18 18 18 18 18 18 19 19 19 19 19 19 19 19 19 19 18 18 18 17 17 17
25 27 27 26 24 21 23 21 19 18 17 17 16 16 16 16 16 16 17 17 17 17 17 17 17 17 17 17 17 18 18 18 18 18 18 18 18 18 18 18 18 18 18 18 18 18 17 17 17
27 27 26 25 23 21 20 20 18 18 17 16 16 15 15 16 16 16 16 16 16 16 16 16 16 16 16 16 16 17 17 17 17 17 17 17 17 17 17 17 17 17 17 17 17 17 17 17 17
27 25 22 20 19 20 20 19 18 17 16 16 16 15 15 16 16 16 16 16 16 16 16 16 16 16 16 16 16 16 16 16 16 16 16 16 16 16 16 16 16 16 17 17 17 17 17 17 16
25 21 20 20 18 19 19 18 17 17 17 16 16 15 16 16 16 16 16 16 16 16 16 16 16 15 15 15 15 15 15 15 15 15 15 15 15 15 15 15 16 16 16 16 16 16 16 16 16
25 22 20 20 20 19 19 18 16 17 16 16 16 16 16 16 16 16 16 16 15 15 15 15 15 15 15 14 14 14 14 14 13 13 13 13 13 13 14 14 14 15 15 15 15 15 16 16 16
24 22 21 19 20 19 18 17 16 16 16 16 16 16 16 16 16 16 16 16 15 15 15 14 14 14 14 14 13 13 13 13 13 12 12 12 12 12 12 13 13 13 14 14 14 14 15 15 15
24 22 19 19 19 19 19 18 16 16 15 16 15 15 16 16 16 16 16 16 16 15 15 14 14 14 13 13 13 12 12 12 12 11 11 11 11 11 12 12 12 12 13 13 13 13 14 14 14
23 22 20 18 18 18 18 17 17 16 15 15 15 16 16 17 17 16 16 16 16 15 15 14 14 13 13 13 12 12 12 11 11 11 11 11 10 10 10 11 11 11 12 12 12 12 13 13 13
23 22 20 19 19 17 17 16 18 16 16 16 16 17 17 17 16 16 16 16 15 15 14 14 13 13 13 12 12 12 11 11 11 11 10 10 10 10 10 10 10 10 10 11 11 11 12 12 13
Wind_Speed
6 8 4 2 1 2 4 3 3 5 6 7 11 11 8 5 4 5 5 18 21 19 19 22 23 23 22 21 20 19 19 19 18 17 17 16 16 16 15 15 15 14 13 12 12 11 11 11 10
3 5 3 1 3 4 6 5 7 5 7 9 10 9 8 7 8 10 8 17 22 19 18 21 24 24 23 22 20 19 19 19 18 17 17 16 16 15 15 14 14 13 12 12 11 10 10 10 9
4 4 3 3 2 2 4 6 5 5 1 4 6 5 5 8 10 8 11 19 19 15 17 22 25 24 23 22 20 19 19 18 18 17 16 16 15 15 14 13 13 12 12 12 11 10 10 9 8
3 3 3 3 3 5 4 4 6 6 5 6 7 6 5 7 8 12 20 20 19 15 16 22 25 24 23 22 20 19 19 18 18 17 16 15 15 14 13 13 12 12 12 11 11 10 10 9 9
3 4 3 1 5 4 4 4 2 4 2 4 7 6 4 4 18 23 21 20 19 14 14 21 24 24 23 22 21 19 19 18 17 17 16 15 14 14 13 12 12 12 11 11 11 11 11 11 10
2 4 2 3 5 4 5 6 6 4 3 6 7 6 4 12 20 21 20 19 18 18 14 18 24 24 23 22 21 20 19 18 17 17 16 15 14 14 13 13 12 12 12 12 12 12 12 12 12
4 2 3 4 4 4 6 7 8 7 5 6 8 7 6 13 18 20 18 18 17 16 14 13 19 21 22 22 21 20 19 18 18 17 16 16 15 14 14 14 13 13 13 14 14 14 14 14 14
5 3 3 3 4 5 5 5 4 7 5 7 8 10 9 14 17 18 17 16 16 14 14 12 14 16 17 19 21 20 20 19 18 18 17 16 16 15 15 15 15 15 16 16 16 16 16 16 16
3 2 4 5 5 6 5 1 1 3 7 4 4 8 12 19 19 17 15 13 14 15 13 13 12 12 14 15 18 19 19 19 19 18 18 17 14 14 14 15 17 18 18 19 19 18 18 17 17
4 4 9 8 6 5 5 3 4 4 6 5 5 7 17 21 21 21 20 19 18 18 16 14 14 13 12 14 14 14 15 15 16 14 15 14 13 13 14 15 19 20 21 21 21 20 19 17 13
4 7 8 10 9 5 4 4 3 9 6 11 17 19 22 19 19 20 21 21 21 19 18 16 15 14 13 9 9 10 11 11 13 14 14 13 11 11 12 10 12 15 18 16 16 16 14 13 12
5 9 8 8 6 4 4 4 2 5 12 17 22 23 22 20 20 20 20 20 18 18 18 17 16 14 14 9 8 9 7 7 8 13 15 11 6 6 6 5 6 7 7 7 8 7 10 11 13
5 6 8 8 7 5 5 6 4 5 7 14 15 15 17 18 17 16 14 15 15 17 18 17 15 13 13 10 9 9 8 7 9 11 14 13 7 7 5 3 3 4 4 4 4 5 6 8 8
7 9 12 10 9 6 5 8 5 5 6 12 12 10 10 11 11 8 8 11 13 14 14 15 14 12 10 9 7 7 6 6 7 7 10 13 9 5 5 4 2 2 3 4 4 5 6 6 5
7 9 12 10 8 7 4 8 7 5 7 11 10 8 5 3 4 4 4 6 9 9 8 9 10 8 8 7 7 5 3 4 4 5 9 10 9 6 5 3 2 2 3 3 2 3 2 4 4
7 6 7 12 8 9 3 9 11 3 8 9 9 7 6 6 8 7 8 7 9 9 9 7 5 4 3 3 2 2 2 2 2 3 5 7 8 7 4 3 2 2 1 1 1 1 2 3 3
4 4 9 12 8 5 5 6 5 1 8 8 8 10 10 12 14 12 13 11 11 9 9 8 5 3 3 2 1 2 2 2 2 3 4 6 7 7 4 3 2 2 1 0 0 0 1 2 3
7 6 7 7 8 6 5 2 5 8 11 11 10 12 14 14 12 12 12 11 10 9 9 7 5 2 2 2 3 3 2 1 2 2 4 7 7 7 5 4 3 3 2 1 0 1 1 2 3
6 4 5 5 5 8 9 9 9 11 13 13 12 12 12 12 11 11 10 10 10 8 8 4 2 2 2 1 1 0 2 2 2 4 6 7 7 7 5 4 4 3 2 1 1 1 1 2 1
3 4 4 6 6 6 8 10 11 14 14 13 12 12 11 10 11 12 11 10 10 8 6 2 2 1 1 2 3 3 3 3 3 3 4 6 6 6 6 7 5 4 3 1 1 1 1 1 0
5 2 3 4 5 6 6 7 9 10 14 15 13 11 10 10 9 10 11 10 8 7 5 5 5 5 4 2 0 1 2 2 1 1 2 3 4 5 5 7 6 5 4 3 3 2 3 2 2
4 4 4 4 4 4 4 1 3 5 11 13 11 10 9 9 9 9 10 10 9 8 8 8 6 6 5 4 3 3 2 1 2 2 2 2 3 3 4 6 6 6 5 5 4 4 3 3 2
3 2 3 2 1 1 3 3 3 3 7 8 7 8 8 7 9 9 9 9 8 8 7 7 7 8 7 7 7 5 4 2 2 3 3 3 3 3 3 4 4 6 5 6 6 5 4 4 4
1 6 8 7 5 3 3 3 3 2 2 4 5 6 5 6 7 6 6 7 6 6 6 6 8 8 7 8 7 7 7 6 6 5 5 5 4 3 4 3 3 4 5 6 6 6 6 5 5
6 7 6 7 6 3 1 5 1 1 5 6 5 4 3 3 4 4 4 5 4 4 4 5 6 6 6 7 7 7 6 6 6 5 5 5 4 4 6 5 4 3 4 6 6 6 7 6 6
1 7 6 3 4 4 2 2 1 3 4 5 5 4 3 2 2 3 3 3 3 3 3 3 4 3 3 4 4 4 4 3 3 4 4 4 4 4 5 6 6 6 5 6 6 6 7 6 7
1 1 5 6 0 1 0 2 2 3 3 3 3 3 2 2 3 3 3 4 4 4 4 4 3 1 0 1 2 3 3 3 4 5 4 4 4 5 6 7 7 7 7 7 6 6 7 7 8
4 2 5 4 1 2 2 2 4 7 7 6 5 4 3 2 2 2 3 4 5 5 5 5 5 5 4 4 4 4 5 5 5 5 6 6 6 5 7 7 7 7 7 7 7 6 7 7 8
4 4 4 2 3 3 2 4 4 8 8 7 5 4 4 4 4 4 5 5 6 5 6 6 6 6 7 7 7 7 7 7 7 6 7 7 7 7 7 7 7 7 8 8 7 7 7 8 8
2 0 4 2 2 2 2 5 3 6 5 5 3 3 3 4 5 6 6 5 4 4 5 6 7 8 9 9 8 9 9 8 8 9 10 9 9 8 8 7 8 8 8 7 7 8 8 8 9
Wind_Direction
178 164 151 149 91 24 302 303 19 40 50 63 78 88 89 73 139 158 138 144 142 149 153 151 149 150 151 151 149 147 145 144 142 140 137 135 134 134 134 134 136 137 137 136 136 136 136 137 137
179 165 138 73 58 15 314 334 6 31 130 118 82 78 80 71 87 111 123 145 144 148 150 152 151 152 153 154 153 152 151 149 148 147 145 144 144 143 142 143 144 145 146 147 148 148 148 149 151
192 181 137 77 79 192 279 313 337 348 67 96 87 62 77 111 117 127 144 143 141 145 150 154 153 154 156 157 157 156 155 154 154 153 153 152 152 152 152 152 153 155 156 159 161 162 163 166 169
162 115 66 73 223 225 203 284 330 354 13 52 95 67 65 117 125 136 141 144 143 147 151 155 155 157 159 160 161 161 160 160 160 159 160 160 160 160 161 163 164 166 168 171 173 175 178 182 187
105 93 63 339 250 239 221 185 241 312 328 66 93 86 50 59 122 136 146 149 148 149 154 158 158 160 162 164 165 166 166 166 166 166 167 168 170 171 172 174 177 180 182 185 188 191 193 196 201
72 77 80 262 255 238 219 190 185 208 153 117 103 103 92 131 134 147 152 154 153 154 157 161 163 164 166 168 169 170 171 172 173 174 176 178 180 182 185 187 190 194 197 200 202 205 207 209 212
137 121 217 238 257 254 220 195 188 188 165 157 140 114 131 152 152 153 154 153 153 157 160 163 166 168 171 172 174 176 177 179 180 182 185 187 190 194 197 201 204 207 210 213 215 217 218 219 220
150 108 289 276 254 261 226 200 188 164 157 148 144 142 163 172 157 154 153 153 155 161 167 167 168 169 172 176 180 182 184 186 188 191 193 197 200 204 208 212 217 220 221 222 223 225 226 226 226
130 84 258 251 245 262 265 226 62 107 130 154 164 163 165 158 155 154 154 155 161 168 174 173 172 172 174 178 186 188 190 193 195 198 202 204 209 213 218 224 227 230 231 231 230 229 231 232 234
118 183 239 237 245 257 252 235 172 125 127 135 130 139 149 159 162 165 166 170 173 176 180 180 178 177 176 184 188 191 195 199 200 202 206 207 210 216 224 232 236 238 239 237 235 233 232 234 235
200 219 254 269 266 264 269 263 176 138 170 178 167 167 164 168 170 173 175 178 180 178 180 182 182 181 182 189 184 191 199 201 207 208 209 210 214 223 232 236 244 245 243 239 239 236 232 229 228
269 271 273 278 294 299 282 287 276 184 200 188 175 169 169 175 180 181 179 180 178 177 183 181 182 183 188 190 186 189 197 200 205 211 211 209 212 220 225 229 235 236 233 227 229 229 231 232 233
278 291 305 301 317 309 318 302 286 261 199 176 174 169 177 181 185 188 180 173 174 180 182 179 178 183 189 190 191 192 198 200 204 206 210 208 208 215 213 222 226 230 223 218 222 227 233 237 240
286 306 306 300 307 304 315 307 323 275 163 164 173 176 184 187 185 180 167 163 170 176 174 173 175 177 181 185 191 191 191 197 197 198 203 204 201 196 199 208 214 225 222 219 217 223 230 236 238
314 331 322 304 298 289 338 319 289 254 152 158 162 164 161 161 126 122 133 141 145 141 139 156 169 172 174 175 181 177 169 173 183 191 190 188 186 183 181 183 203 228 230 225 226 238 230 240 241
340 344 307 286 278 270 205 261 279 271 132 153 154 136 97 67 65 68 74 88 99 91 96 114 137 130 138 140 155 140 118 125 147 157 159 170 179 173 160 165 197 221 206 211 248 249 259 268 267
343 290 280 296 293 261 177 232 288 36 113 111 112 107 90 72 59 57 68 72 75 75 79 76 67 91 75 55 58 65 92 123 135 143 157 169 167 164 151 156 169 134 102 76 294 229 218 260 278
263 276 293 308 333 35 78 66 15 41 80 83 86 89 86 80 68 68 75 83 79 82 77 62 72 102 105 59 41 7 354 250 156 166 182 175 168 158 146 150 152 129 109 72 17 258 249 241 263
251 287 316 310 342 45 51 47 36 51 64 68 69 74 73 73 72 65 58 66 68 64 62 64 85 148 143 135 133 245 266 245 201 195 194 181 171 160 156 153 148 136 139 173 224 221 293 290 301
327 354 348 328 358 38 56 56 58 55 59 66 66 66 67 64 58 62 60 59 68 69 68 76 58 73 154 189 197 197 225 238 223 211 197 187 176 171 169 165 166 161 158 168 172 176 222 282 349
348 350 340 337 6 33 61 35 44 50 61 60 58 57 56 62 62 60 63 62 71 78 78 71 48 27 12 350 47 337 338 357 6 265 225 215 192 188 180 179 172 178 176 190 204 195 178 230 277
310 305 353 6 26 340 48 18 6 45 55 53 56 55 54 56 61 61 66 63 59 62 64 61 58 42 22 20 37 41 28 16 328 299 285 278 241 212 206 200 187 192 193 196 205 188 187 188 243
250 307 14 357 62 25 11 106 321 34 54 49 55 69 67 61 64 67 73 73 65 61 59 51 50 43 30 30 29 30 30 16 346 355 2 346 309 291 261 227 206 209 207 205 201 195 202 198 210
358 27 21 35 59 16 316 104 332 348 95 85 75 81 84 81 80 83 90 90 80 74 67 56 52 40 30 34 35 35 29 20 22 14 1 350 336 335 331 297 239 225 218 213 209 207 210 213 218
43 61 21 359 5 276 322 97 244 62 107 114 110 101 103 108 113 110 100 96 100 94 85 75 65 44 30 30 27 24 19 15 11 1 356 352 348 341 337 337 301 266 244 232 221 214 220 218 220
304 125 145 214 246 275 5 111 191 128 130 131 132 135 147 160 159 140 141 144 151 147 129 106 89 62 32 26 11 11 11 5 349 344 343 343 333 320 331 335 325 310 285 261 240 230 228 225 225
38 309 179 152 300 38 140 118 164 171 171 167 153 138 152 164 160 165 179 183 185 181 178 167 154 160 246 313 319 320 325 324 316 315 319 316 312 315 330 325 322 318 310 294 271 249 240 233 231
121 136 60 64 47 322 298 204 213 200 208 206 192 183 189 184 192 196 200 201 197 191 188 184 182 196 219 230 244 253 265 272 277 288 296 295 296 300 306 311 310 309 307 303 292 274 259 246 241
6 34 77 100 150 155 286 272 234 199 199 202 205 199 203 222 238 242 237 225 215 203 198 203 209 216 227 232 236 243 250 255 261 266 271 274 277 283 287 291 294 297 298 297 295 286 277 263 255
47 285 135 127 319 116 150 273 265 187 193 187 194 213 238 254 260 259 259 259 248 238 235 236 239 238 240 238 238 241 245 247 249 254 258 260 264 267 268 272 278 283 286 288 289 287 284 273 263
Height
1513 1512 1513 1514 1516 1519 1516 1500 1489 1484 1485 1485 1484 1485 1489 1494 1499 1507 1504 1505 1509 1512 1516 1520 1524 1525 1527 1528 1529 1530 1532 1533 1534 1536 1537 1538 1540 1541 1542 1543 1544 1545 1546 1546 1547 1548 1548 1549 1550
1513 1512 1513 1513 1518 1529 1518 1500 1494 1488 1487 1485 1486 1489 1491 1495 1496 1498 1501 1506 1510 1512 1516 1520 1523 1525 1527 1528 1529 1531 1532 1533 1535 1536 1537 1538 1540 1541 1542 1543 1544 1545 1546 1546 1547 1548 1549 1549 1550
1512 1512 1513 1514 1521 1527 1518 1500 1495 1493 1488 1484 1488 1491 1493 1497 1498 1499 1502 1506 1510 1512 1516 1519 1522 1524 1526 1528 1529 1531 1532 1533 1535 1536 1537 1538 1540 1541 1542 1543 1544 1544 1545 1546 1547 1547 1548 1549 1550
1511 1512 1513 1518 1521 1512 1504 1497 1494 1494 1491 1488 1489 1493 1496 1499 1499 1501 1504 1507 1510 1512 1516 1519 1522 1524 1526 1527 1529 1530 1532 1533 1535 1536 1537 1538 1539 1540 1541 1542 1543 1544 1544 1545 1546 1546 1547 1548 1548
1509 1510 1516 1522 1516 1504 1498 1493 1495 1494 1493 1492 1490 1495 1498 1500 1501 1503 1505 1507 1509 1512 1515 1518 1521 1523 1525 1527 1528 1530 1531 1533 1534 1535 1537 1538 1539 1540 1540 1541 1542 1542 1543 1544 1544 1545 1545 1546 1547
1509 1509 1522 1526 1512 1500 1495 1491 1492 1493 1493 1493 1493 1496 1500 1500 1501 1503 1505 1507 1510 1512 1514 1517 1520 1522 1524 1526 1528 1529 1530 1532 1533 1535 1536 1537 1538 1539 1540 1540 1541 1541 1542 1542 1543 1543 1544 1544 1545
1507 1511 1519 1515 1509 1500 1492 1488 1489 1490 1491 1492 1492 1496 1500 1501 1502 1504 1506 1508 1510 1512 1514 1516 1518 1521 1523 1525 1527 1528 1530 1531 1532 1534 1535 1536 1537 1538 1538 1539 1540 1540 1540 1541 1541 1541 1542 1542 1543
1504 1508 1513 1512 1506 1499 1488 1486 1485 1486 1489 1491 1491 1492 1496 1499 1502 1504 1506 1508 1510 1511 1513 1515 1517 1519 1521 1523 1525 1527 1528 1530 1531 1532 1534 1535 1535 1536 1537 1537 1538 1538 1539 1539 1539 1540 1540 1540 1541
1503 1512 1517 1509 1502 1494 1486 1485 1485 1485 1486 1489 1489 1488 1489 1496 1500 1502 1504 1506 1508 1509 1511 1513 1515 1517 1519 1522 1523 1525 1526 1528 1529 1530 1532 1533 1534 1534 1535 1536 1536 1536 1536 1537 1537 1537 1537 1538 1538
1500 1512 1506 1495 1491 1488 1485 1483 1484 1486 1486 1486 1486 1486 1488 1491 1495 1497 1498 1500 1503 1505 1508 1510 1513 1515 1517 1519 1521 1522 1524 1525 1527 1528 1529 1530 1532 1532 1533 1533 1534 1534 1534 1534 1534 1534 1534 1534 1534
1496 1499 1492 1488 1486 1484 1482 1481 1481 1484 1486 1483 1481 1482 1484 1487 1490 1492 1493 1495 1498 1502 1505 1508 1510 1513 1515 1516 1518 1520 1521 1523 1525 1526 1527 1528 1529 1530 1530 1531 1530 1530 1531 1531 1531 1531 1531 1531 1531
1495 1491 1488 1485 1482 1481 1479 1478 1478 1478 1478 1477 1476 1477 1480 1483 1485 1487 1489 1491 1496 1500 1503 1506 1508 1510 1512 1514 1516 1518 1519 1521 1522 1524 1525 1526 1527 1527 1528 1528 1528 1528 1528 1527 1528 1528 1528 1528 1528
1491 1488 1485 1482 1480 1479 1477 1476 1475 1474 1474 1476 1478 1479 1479 1480 1483 1486 1488 1491 1495 1497 1501 1504 1507 1509 1511 1513 1514 1516 1517 1519 1520 1522 1523 1524 1524 1524 1525 1525 1525 1525 1525 1524 1524 1524 1524 1524 1524
1491 1487 1483 1478 1476 1475 1476 1475 1475 1473 1473 1476 1478 1480 1481 1482 1484 1487 1490 1491 1494 1496 1499 1501 1503 1507 1509 1511 1513 1514 1516 1517 1518 1519 1520 1521 1521 1521 1521 1522 1522 1521 1521 1521 1521 1520 1520 1520 1520
1490 1489 1484 1477 1474 1473 1476 1479 1474 1472 1473 1475 1478 1480 1481 1483 1485 1488 1490 1492 1493 1495 1497 1500 1502 1505 1506 1508 1510 1512 1514 1515 1516 1517 1518 1519 1519 1519 1519 1518 1518 1518 1518 1518 1517 1517 1517 1516 1515
1491 1494 1497 1479 1473 1471 1480 1489 1474 1472 1472 1475 1478 1481 1483 1485 1486 1487 1489 1491 1494 1496 1496 1498 1501 1502 1504 1504 1507 1510 1512 1512 1513 1514 1515 1516 1518 1517 1516 1515 1515 1515 1514 1514 1514 1513 1513 1512 1511
1502 1506 1500 1485 1471 1468 1476 1485 1475 1474 1473 1476 1479 1482 1484 1486 1486 1487 1488 1491 1492 1494 1493 1495 1496 1496 1498 1500 1504 1505 1508 1509 1509 1511 1513 1514 1515 1515 1514 1513 1512 1512 1511 1511 1510 1509 1509 1508 1507
1509 1504 1497 1490 1476 1472 1478 1482 1479 1479 1479 1481 1483 1484 1485 1485 1487 1488 1488 1490 1489 1492 1492 1491 1493 1491 1494 1497 1498 1503 1506 1507 1507 1509 1511 1512 1513 1512 1511 1510 1509 1509 1508 1508 1507 1506 1506 1505 1503
1492 1494 1495 1486 1475 1478 1485 1487 1486 1485 1484 1486 1488 1489 1490 1489 1489 1488 1489 1488 1490 1493 1492 1490 1490 1492 1494 1497 1498 1501 1503 1503 1504 1506 1508 1510 1511 1510 1509 1508 1507 1506 1506 1505 1504 1503 1502 1501 1500
1488 1493 1492 1485 1477 1480 1489 1493 1492 1492 1492 1492 1492 1493 1493 1492 1491 1488 1489 1491 1492 1492 1492 1494 1493 1493 1495 1497 1497 1497 1498 1500 1503 1504 1505 1507 1507 1507 1506 1505 1504 1503 1503 1502 1501 1501 1499 1498 1497
1487 1490 1489 1488 1483 1483 1488 1500 1499 1499 1497 1497 1497 1497 1497 1496 1495 1494 1492 1492 1493 1492 1493 1494 1494 1494 1495 1496 1495 1496 1498 1499 1500 1500 1502 1503 1504 1504 1503 1502 1501 1501 1501 1500 1499 1498 1497 1495 1494
1493 1481 1480 1483 1493 1503 1497 1515 1508 1504 1504 1503 1502 1502 1501 1499 1498 1497 1495 1495 1494 1496 1496 1495 1494 1495 1496 1495 1494 1495 1496 1497 1498 1498 1499 1499 1499 1499 1499 1498 1497 1497 1498 1497 1496 1495 1494 1492 1491
1483 1477 1480 1484 1492 1504 1505 1515 1516 1508 1511 1510 1507 1506 1505 1503 1500 1500 1499 1498 1498 1498 1498 1497 1497 1497 1496 1495 1494 1494 1494 1495 1495 1495 1495 1495 1494 1494 1494 1493 1493 1493 1493 1493 1492 1491 1490 1489 1488
1476 1481 1488 1496 1505 1519 1513 1518 1522 1515 1513 1512 1510 1508 1507 1504 1503 1503 1502 1501 1500 1500 1499 1499 1498 1497 1496 1495 1494 1493 1492 1491 1490 1490 1490 1490 1489 1489 1488 1488 1488 1488 1488 1488 1487 1487 1486 1485 1484
1481 1502 1521 1522 1530 1528 1514 1518 1523 1513 1511 1511 1509 1508 1508 1506 1504 1504 1503 1502 1501 1500 1500 1499 1498 1497 1496 1494 1493 1491 1490 1488 1487 1485 1485 1484 1483 1483 1483 1482 1482 1482 1482 1482 1482 1481 1481 1480 1479
1485 1499 1523 1532 1532 1527 1516 1521 1521 1513 1512 1510 1508 1507 1507 1506 1505 1504 1503 1503 1502 1500 1499 1499 1498 1496 1495 1493 1492 1490 1488 1486 1484 1482 1480 1479 1478 1477 1476 1476 1475 1475 1475 1476 1476 1475 1475 1475 1474
1488 1495 1497 1514 1516 1525 1524 1521 1519 1514 1512 1510 1508 1507 1506 1506 1505 1504 1503 1502 1500 1499 1497 1496 1495 1493 1492 1490 1489 1487 1485 1483 1481 1479 1477 1475 1474 1472 1471 1470 1469 1469 1468 1468 1468 1468 1468 1468 1468
1483 1489 1502 1514 1525 1531 1524 1522 1522 1515 1512 1509 1507 1506 1505 1505 1505 1503 1502 1500 1498 1496 1494 1493 1491 1490 1489 1487 1485 1483 1481 1479 1477 1474 1472 1470 1468 1467 1465 1464 1463 1462 1462 1461 1461 1460 1461 1461 1461
1489 1492 1501 1512 1517 1529 1532 1527 1508 1508 1507 1507 1506 1506 1505 1504 1503 1501 1498 1497 1495 1493 1491 1489 1487 1486 1484 1483 1481 1478 1476 1474 1472 1470 1467 1465 1463 1461 1460 1458 1457 1456 1455 1454 1453 1453 1453 1453 1453
1488 1491 1499 1515 1518 1521 1529 1528 1504 1505 1505 1506 1506 1506 1505 1503 1501 1498 1495 1493 1491 1489 1487 1485 1483 1481 1479 1477 1475 1472 1470 1468 1466 1464 1462 1460 1458 1456 1454 1453 1451 1450 1448 1447 1446 1446 1446 1446 1446